Weather in Sharanga

Russia / Nizhny Novgorod Oblast'     57°10′37″N   46°32′39″E
temp.,
°C
wind,
m/s
gust,
m/s
humid.,
%
clouds,
%
prec.,
mm/h
press.,
hPa
HPBL,
m
15 may, sat
sat1500:00+16sw228991 0.0 101723
03:00+16sse3390100 0.3 101757
06:00+18ese2687100 0.8 1016164
09:00+23se5868100 0.9 1014541
12:00+27s59445 0.0 10141334
15:00+27ssw611445 0.0 10131494
18:00+24ssw612504 0.0 1013974
21:00+19s514665 0.0 1013468
16 may, sun
sun1600:00+16s238299 0.0 101443
03:00+15s239081 0.7 101458
06:00+17ssw358735 0.1 1014175
09:00+22sw4761100 0.1 1014803
12:00+25sw5104599 0.0 10141887
15:00+25sw6103880 0.0 10132198
18:00+23sw48510 0.0 1013629
21:00+17sw22760 0.0 101528
17 may, mon
mon1700:00+15sw37800 0.0 1015112
03:00+13wsw34863 0.0 101681
06:00+16wsw24760 0.0 1017169
09:00+21wsw35535 0.0 1018966
12:00+24wsw35426 0.0 10181595
15:00+26wsw35385 0.0 10171751
18:00+24wnw115398 0.0 101722
21:00+19ese22675 0.0 101711
18 may, tue
tue1800:00+17se22785 0.0 101712
03:00+16se228594 0.0 101727
06:00+18se24775 0.0 1017141
09:00+24sse344912 0.0 1017549
12:00+28se343581 0.0 10161167
15:00+29sse45285 0.0 10163125
18:00+25s36445 0.0 1015143
21:00+19sse37580 0.0 1015104
19 may, wed
wed1900:00+17se310645 0.0 1015147
03:00+15se396856 0.0 1015133
06:00+18se41065100 0.0 1014234
09:00+23se5949100 0.0 1013417
12:00+29se611325 0.0 10132009
15:00+29se710345 0.0 10123161
18:00+25se6125047 0.0 1010939
21:00+19sse247472 0.0 100968